Time,TemperatureF,DewpointF,PressureIn,WindDirection,WindDirectionDegrees,WindSpeedMPH,WindSpeedGustMPH,Humidity,HourlyPrecipIn,Conditions,Clouds,dailyrainin,SoftwareType,DateUTC
2014-02-11 00:01:00,12.6,7.6,30.33,WSW,240,0.0,0.0,80,0.00,CLR,,0.00,WeatherDisplay:10.37,2014-02-11 05:01:00,
2014-02-11 00:02:00,12.5,7.5,30.33,WSW,249,0.0,0.0,80,0.00,CLR,,0.00,WeatherDisplay:10.37,2014-02-11 05:02:00,
2014-02-11 00:07:00,12.5,7.8,30.33,WNW,293,0.0,0.0,81,0.00,CLR,,0.00,WeatherDisplay:10.37,2014-02-11 05:07:00,
2014-02-11 00:12:00,12.5,7.8,30.33,WSW,246,0.0,0.0,81,0.00,CLR,,0.00,WeatherDisplay:10.37,2014-02-11 05:12:00,
2014-02-11 00:17:00,12.6,7.9,30.33,WNW,298,0.0,0.0,81,0.00,CLR,,0.00,WeatherDisplay:10.37,2014-02-11 05:17:00,
2014-02-11 00:22:00,12.7,7.7,30.33,WSW,257,0.0,0.0,80,0.00,CLR,,0.00,WeatherDisplay:10.37,2014-02-11 05:22:00,
2014-02-11 00:27:00,12.6,7.6,30.33,WNW,288,0.0,0.0,80,0.00,CLR,,0.00,WeatherDisplay:10.37,2014-02-11 05:27:00,
2014-02-11 00:32:00,12.7,7.7,30.33,WNW,283,0.0,0.0,80,0.00,CLR,,0.00,WeatherDisplay:10.37,2014-02-11 05:32:00,
2014-02-11 00:37:00,12.8,7.5,30.33,NW,308,0.0,0.0,79,0.00,CLR,,0.00,WeatherDisplay:10.37,2014-02-11 05:37:00,
2014-02-11 00:42:00,12.9,7.3,30.33,WSW,252,0.0,0.0,78,0.00,CLR,,0.00,WeatherDisplay:10.37,2014-02-11 05:42:00,
2014-02-11 00:47:00,13.1,7.2,30.33,WNW,284,0.0,0.0,77,0.00,CLR,,0.00,WeatherDisplay:10.37,2014-02-11 05:47:00,
2014-02-11 00:52:00,13.1,7.2,30.33,West,271,0.0,0.0,77,0.00,CLR,,0.00,WeatherDisplay:10.37,2014-02-11 05:52:00,
2014-02-11 00:57:00,13.0,6.9,30.33,WNW,285,0.0,0.0,76,0.00,CLR,,0.00,WeatherDisplay:10.37,2014-02-11 05:57:00,
2014-02-11 01:02:00,12.9,7.0,30.33,North,1,0.0,0.0,77,0.00,,,0.00,WeatherDisplay:10.37,2014-02-11 06:02:00,
2014-02-11 01:07:00,13.0,7.1,30.33,WNW,290,0.0,0.0,77,0.00,,,0.00,WeatherDisplay:10.37,2014-02-11 06:07:00,
2014-02-11 01:12:00,13.0,7.1,30.33,WSW,249,0.0,0.0,77,0.00,,,0.00,WeatherDisplay:10.37,2014-02-11 06:12:00,
2014-02-11 01:17:00,13.1,7.0,30.33,NW,326,0.0,0.0,76,0.00,,,0.00,WeatherDisplay:10.37,2014-02-11 06:17:00,
2014-02-11 01:22:00,13.2,7.0,30.33,West,271,0.0,0.0,76,0.00,,,0.00,WeatherDisplay:10.37,2014-02-11 06:22:00,
2014-02-11 01:27:00,13.1,7.0,30.33,West,269,0.0,0.0,76,0.00,,,0.00,WeatherDisplay:10.37,2014-02-11 06:27:00,
2014-02-11 01:32:00,13.1,7.0,30.33,WSW,253,0.0,0.0,76,0.00,,,0.00,WeatherDisplay:10.37,2014-02-11 06:32:00,
2014-02-11 01:37:00,13.1,7.0,30.33,WSW,239,0.0,0.0,76,0.00,,,0.00,WeatherDisplay:10.37,2014-02-11 06:37:00,
2014-02-11 01:42:00,13.0,7.1,30.33,WNW,294,0.0,0.0,77,0.00,,,0.00,WeatherDisplay:10.37,2014-02-11 06:42:00,
2014-02-11 01:47:00,13.0,7.1,30.33,West,280,0.0,0.0,77,0.00,,,0.00,WeatherDisplay:10.37,2014-02-11 06:47:00,
2014-02-11 01:53:00,12.9,7.0,30.33,WSW,246,0.0,0.0,77,0.00,,,0.00,WeatherDisplay:10.37,2014-02-11 06:53:00,
2014-02-11 01:58:00,12.9,7.0,30.33,West,273,0.0,0.0,77,0.00,,,0.00,WeatherDisplay:10.37,2014-02-11 06:58:00,
2014-02-11 02:03:00,12.8,6.9,30.33,WNW,285,0.0,0.0,77,0.00,,,0.00,WeatherDisplay:10.37,2014-02-11 07:03:00,
2014-02-11 02:08:00,12.7,7.1,30.34,West,278,0.0,0.0,78,0.00,,,0.00,WeatherDisplay:10.37,2014-02-11 07:08:00,
2014-02-11 02:13:00,12.6,7.0,30.34,WSW,246,0.0,0.0,78,0.00,,,0.00,WeatherDisplay:10.37,2014-02-11 07:13:00,
2014-02-11 02:18:00,12.6,7.3,30.34,NW,309,0.0,0.0,79,0.00,,,0.00,WeatherDisplay:10.37,2014-02-11 07:18:00,
2014-02-11 02:23:00,12.7,7.4,30.34,SW,233,0.0,0.0,79,0.00,,,0.00,WeatherDisplay:10.37,2014-02-11 07:23:00,
2014-02-11 02:28:00,12.7,7.4,30.34,West,267,0.0,0.0,79,0.00,,,0.00,WeatherDisplay:10.37,2014-02-11 07:28:00,
2014-02-11 02:33:00,12.7,7.7,30.34,WSW,251,0.0,0.0,80,0.00,,,0.00,WeatherDisplay:10.37,2014-02-11 07:33:00,
2014-02-11 02:38:00,12.6,7.6,30.34,West,262,0.0,0.0,80,0.00,,,0.00,WeatherDisplay:10.37,2014-02-11 07:38:00,
2014-02-11 02:43:00,12.5,7.5,30.34,West,259,0.0,0.0,80,0.00,,,0.00,WeatherDisplay:10.37,2014-02-11 07:43:00,
2014-02-11 02:48:00,12.5,7.5,30.34,WSW,257,0.0,0.0,80,0.00,,,0.00,WeatherDisplay:10.37,2014-02-11 07:48:00,
2014-02-11 02:53:00,12.5,7.8,30.34,West,263,0.0,0.0,81,0.00,,,0.00,WeatherDisplay:10.37,2014-02-11 07:53:00,
2014-02-11 02:58:00,12.4,7.7,30.34,NW,321,0.0,0.0,81,0.00,,,0.00,WeatherDisplay:10.37,2014-02-11 07:58:00,
2014-02-11 03:03:00,12.4,8.0,30.33,SE,143,0.0,0.0,82,0.00,,,0.00,WeatherDisplay:10.37,2014-02-11 08:03:00,
2014-02-11 03:08:00,12.3,8.1,30.33,West,276,0.0,0.0,83,0.00,,,0.00,WeatherDisplay:10.37,2014-02-11 08:08:00,
2014-02-11 03:13:00,12.3,8.1,30.34,West,281,0.0,0.0,83,0.00,,,0.00,WeatherDisplay:10.37,2014-02-11 08:13:00,
2014-02-11 03:18:00,12.3,8.1,30.34,WSW,238,0.0,0.0,83,0.00,,,0.00,WeatherDisplay:10.37,2014-02-11 08:18:00,
2014-02-11 03:23:00,12.3,8.1,30.34,WNW,300,0.0,0.0,83,0.00,,,0.00,WeatherDisplay:10.37,2014-02-11 08:23:00,
2014-02-11 03:28:00,12.2,8.0,30.34,WSW,240,0.0,0.0,83,0.00,,,0.00,WeatherDisplay:10.37,2014-02-11 08:28:00,
2014-02-11 03:33:00,12.2,8.3,30.34,SSW,207,0.0,0.0,84,0.00,,,0.00,WeatherDisplay:10.37,2014-02-11 08:33:00,
2014-02-11 03:38:00,12.2,8.6,30.34,West,260,0.0,0.0,85,0.00,,,0.00,WeatherDisplay:10.37,2014-02-11 08:38:00,
2014-02-11 03:43:00,12.1,8.5,30.34,SSE,163,0.0,0.0,85,0.00,,,0.00,WeatherDisplay:10.37,2014-02-11 08:43:00,
2014-02-11 03:48:00,12.1,8.7,30.34,WSW,256,0.0,0.0,86,0.00,,,0.00,WeatherDisplay:10.37,2014-02-11 08:48:00,
2014-02-11 03:53:00,12.1,8.5,30.35,WNW,302,0.0,0.0,85,0.00,,,0.00,WeatherDisplay:10.37,2014-02-11 08:53:00,
2014-02-11 03:58:00,12.1,8.7,30.35,WSW,257,0.0,0.0,86,0.00,,,0.00,WeatherDisplay:10.37,2014-02-11 08:58:00,
2014-02-11 04:03:00,12.0,8.9,30.35,West,277,0.0,0.0,87,0.00,,,0.00,WeatherDisplay:10.37,2014-02-11 09:03:00,
2014-02-11 04:08:00,12.0,8.9,30.35,WSW,244,0.0,0.0,87,0.00,,,0.00,WeatherDisplay:10.37,2014-02-11 09:08:00,
2014-02-11 04:13:00,11.9,8.8,30.35,West,278,0.0,0.0,87,0.00,,,0.00,WeatherDisplay:10.37,2014-02-11 09:13:00,
2014-02-11 04:18:00,11.9,8.8,30.35,West,264,0.0,0.0,87,0.00,,,0.00,WeatherDisplay:10.37,2014-02-11 09:18:00,
2014-02-11 04:23:00,11.8,8.7,30.35,West,264,0.0,0.0,87,0.00,,,0.00,WeatherDisplay:10.37,2014-02-11 09:23:00,
2014-02-11 04:28:00,11.8,8.9,30.36,West,268,0.0,0.0,88,0.00,,,0.00,WeatherDisplay:10.37,2014-02-11 09:28:00,
2014-02-11 04:33:00,11.8,8.9,30.36,WSW,243,0.0,0.0,88,0.00,,,0.00,WeatherDisplay:10.37,2014-02-11 09:33:00,
2014-02-11 04:38:00,11.8,8.9,30.36,West,269,0.0,0.0,88,0.00,,,0.00,WeatherDisplay:10.37,2014-02-11 09:38:00,
2014-02-11 04:43:00,11.7,8.8,30.36,WSW,240,0.0,0.0,88,0.00,,,0.00,WeatherDisplay:10.37,2014-02-11 09:43:00,
2014-02-11 04:48:00,11.7,8.8,30.36,WSW,256,0.0,0.0,88,0.00,,,0.00,WeatherDisplay:10.37,2014-02-11 09:48:00,
2014-02-11 04:53:00,11.7,8.8,30.36,West,266,0.0,0.0,88,0.00,,,0.00,WeatherDisplay:10.37,2014-02-11 09:53:00,
2014-02-11 04:58:00,11.7,8.8,30.36,WSW,245,0.0,0.0,88,0.00,,,0.00,WeatherDisplay:10.37,2014-02-11 09:58:00,
2014-02-11 05:03:00,11.7,8.8,30.36,WSW,256,0.0,0.0,88,0.00,,,0.00,WeatherDisplay:10.37,2014-02-11 10:03:00,
2014-02-11 05:08:00,11.7,8.8,30.36,WSW,240,0.0,0.0,88,0.00,,,0.00,WeatherDisplay:10.37,2014-02-11 10:08:00,
2014-02-11 05:13:00,11.7,8.8,30.36,West,271,0.0,0.0,88,0.00,,,0.00,WeatherDisplay:10.37,2014-02-11 10:13:00,
2014-02-11 05:18:00,11.7,8.8,30.36,West,264,0.0,0.0,88,0.00,,,0.00,WeatherDisplay:10.37,2014-02-11 10:18:00,
2014-02-11 05:23:00,11.7,8.8,30.36,WNW,287,0.0,0.0,88,0.00,,,0.00,WeatherDisplay:10.37,2014-02-11 10:23:00,
2014-02-11 05:28:00,11.7,8.8,30.37,WNW,294,0.0,0.0,88,0.00,,,0.00,WeatherDisplay:10.37,2014-02-11 10:28:00,
2014-02-11 05:33:00,11.7,8.8,30.37,SW,229,0.0,0.0,88,0.00,,,0.00,WeatherDisplay:10.37,2014-02-11 10:33:00,
2014-02-11 05:38:00,11.7,8.8,30.37,WSW,243,0.0,0.0,88,0.00,,,0.00,WeatherDisplay:10.37,2014-02-11 10:38:00,
2014-02-11 05:43:00,11.6,8.7,30.37,West,274,0.0,0.0,88,0.00,,,0.00,WeatherDisplay:10.37,2014-02-11 10:43:00,
2014-02-11 05:48:00,11.6,8.7,30.37,WSW,250,0.0,0.0,88,0.00,,,0.00,WeatherDisplay:10.37,2014-02-11 10:48:00,
2014-02-11 05:53:00,11.5,8.9,30.37,WSW,245,0.0,0.0,89,0.00,,,0.00,WeatherDisplay:10.37,2014-02-11 10:53:00,
2014-02-11 05:58:00,11.5,8.9,30.37,West,271,0.0,0.0,89,0.00,,,0.00,WeatherDisplay:10.37,2014-02-11 10:58:00,
2014-02-11 06:03:00,11.5,8.9,30.37,West,262,0.0,0.0,89,0.00,,,0.00,WeatherDisplay:10.37,2014-02-11 11:03:00,
2014-02-11 06:08:00,11.5,8.9,30.38,WNW,293,0.0,0.0,89,0.00,,,0.00,WeatherDisplay:10.37,2014-02-11 11:08:00,
2014-02-11 06:13:00,11.4,8.8,30.37,WSW,252,0.0,0.0,89,0.00,,,0.00,WeatherDisplay:10.37,2014-02-11 11:13:00,
2014-02-11 06:18:00,11.4,8.8,30.37,WSW,240,0.0,0.0,89,0.00,,,0.00,WeatherDisplay:10.37,2014-02-11 11:18:00,
2014-02-11 06:23:00,11.4,8.8,30.37,WSW,255,0.0,0.0,89,0.00,,,0.00,WeatherDisplay:10.37,2014-02-11 11:23:00,
2014-02-11 06:28:00,11.3,8.7,30.38,West,262,0.0,0.0,89,0.00,,,0.00,WeatherDisplay:10.37,2014-02-11 11:28:00,
2014-02-11 06:33:00,11.3,8.7,30.38,West,261,0.0,0.0,89,0.00,,,0.00,WeatherDisplay:10.37,2014-02-11 11:33:00,
2014-02-11 06:38:00,11.3,8.7,30.38,WNW,289,0.0,0.0,89,0.00,,,0.00,WeatherDisplay:10.37,2014-02-11 11:38:00,
2014-02-11 06:43:00,11.2,8.6,30.38,West,262,0.0,0.0,89,0.00,,,0.00,WeatherDisplay:10.37,2014-02-11 11:43:00,
2014-02-11 06:48:00,11.2,8.6,30.38,WNW,292,0.0,0.0,89,0.00,,,0.00,WeatherDisplay:10.37,2014-02-11 11:48:00,
2014-02-11 06:53:00,11.1,8.5,30.38,WNW,284,0.0,0.0,89,0.00,,,0.00,WeatherDisplay:10.37,2014-02-11 11:53:00,
2014-02-11 06:58:00,11.1,8.5,30.38,West,266,0.0,0.0,89,0.00,,,0.00,WeatherDisplay:10.37,2014-02-11 11:58:00,
2014-02-11 07:03:00,11.1,8.5,30.39,SW,235,0.0,0.0,89,0.00,CLR,,0.00,WeatherDisplay:10.37,2014-02-11 12:03:00,
2014-02-11 07:08:00,11.1,8.5,30.39,West,268,0.0,0.0,89,0.00,CLR,,0.00,WeatherDisplay:10.37,2014-02-11 12:08:00,
2014-02-11 07:13:00,11.1,8.5,30.39,WSW,250,0.0,0.0,89,0.00,CLR,,0.00,WeatherDisplay:10.37,2014-02-11 12:13:00,
2014-02-11 07:18:00,11.1,8.5,30.39,West,270,0.0,0.0,89,0.00,CLR,,0.00,WeatherDisplay:10.37,2014-02-11 12:18:00,
2014-02-11 07:23:00,11.0,8.4,30.39,WSW,257,0.0,0.0,89,0.00,CLR,,0.00,WeatherDisplay:10.37,2014-02-11 12:23:00,
2014-02-11 07:28:00,11.0,8.4,30.40,NNE,16,0.0,0.0,89,0.00,CLR,,0.00,WeatherDisplay:10.37,2014-02-11 12:28:00,
2014-02-11 07:33:00,11.0,8.4,30.40,WSW,241,0.0,0.0,89,0.00,CLR,,0.00,WeatherDisplay:10.37,2014-02-11 12:33:00,
2014-02-11 07:38:00,11.0,8.4,30.40,West,264,0.0,0.0,89,0.00,CLR,,0.00,WeatherDisplay:10.37,2014-02-11 12:38:00,
2014-02-11 07:43:00,11.1,8.5,30.41,West,263,0.0,0.0,89,0.00,CLR,,0.00,WeatherDisplay:10.37,2014-02-11 12:43:00,
2014-02-11 07:48:00,11.1,8.5,30.41,West,263,0.0,0.0,89,0.00,CLR,,0.00,WeatherDisplay:10.37,2014-02-11 12:48:00,
2014-02-11 07:53:00,11.2,8.6,30.41,SSW,198,0.0,0.0,89,0.00,CLR,,0.00,WeatherDisplay:10.37,2014-02-11 12:53:00,
2014-02-11 07:58:00,11.3,8.7,30.41,WSW,245,0.0,0.0,89,0.00,CLR,,0.00,WeatherDisplay:10.37,2014-02-11 12:58:00,
2014-02-11 08:03:00,11.4,8.8,30.41,SW,235,0.0,0.0,89,0.00,CLR,,0.00,WeatherDisplay:10.37,2014-02-11 13:03:00,
2014-02-11 08:08:00,11.4,8.8,30.41,WSW,246,0.0,0.0,89,0.00,CLR,,0.00,WeatherDisplay:10.37,2014-02-11 13:08:00,
2014-02-11 08:13:00,11.4,8.8,30.41,WNW,291,0.0,0.0,89,0.00,CLR,,0.00,WeatherDisplay:10.37,2014-02-11 13:13:00,
2014-02-11 08:18:00,11.5,8.9,30.41,WSW,240,0.0,0.0,89,0.00,CLR,,0.00,WeatherDisplay:10.37,2014-02-11 13:18:00,
2014-02-11 08:23:00,11.6,9.0,30.42,WSW,241,0.0,0.0,89,0.00,CLR,,0.00,WeatherDisplay:10.37,2014-02-11 13:23:00,
2014-02-11 08:28:00,11.7,9.1,30.42,WSW,240,0.0,0.0,89,0.00,CLR,,0.00,WeatherDisplay:10.37,2014-02-11 13:28:00,
2014-02-11 08:33:00,11.7,8.8,30.42,WSW,239,0.0,0.0,88,0.00,CLR,,0.00,WeatherDisplay:10.37,2014-02-11 13:33:00,
2014-02-11 08:38:00,11.7,8.8,30.42,WSW,246,0.0,0.0,88,0.00,CLR,,0.00,WeatherDisplay:10.37,2014-02-11 13:38:00,
2014-02-11 08:43:00,11.9,9.0,30.42,WSW,237,0.0,0.0,88,0.00,CLR,,0.00,WeatherDisplay:10.37,2014-02-11 13:43:00,
2014-02-11 08:48:00,12.0,9.1,30.42,WSW,246,0.0,0.0,88,0.00,CLR,,0.00,WeatherDisplay:10.37,2014-02-11 13:48:00,
2014-02-11 08:53:00,12.1,9.2,30.42,West,268,0.0,0.0,88,0.00,CLR,,0.00,WeatherDisplay:10.37,2014-02-11 13:53:00,
2014-02-11 08:58:00,12.1,9.2,30.42,West,259,0.0,0.0,88,0.00,CLR,,0.00,WeatherDisplay:10.37,2014-02-11 13:58:00,
2014-02-11 09:03:00,12.3,9.4,30.42,WSW,249,0.0,0.0,88,0.00,CLR,,0.00,WeatherDisplay:10.37,2014-02-11 14:03:00,
2014-02-11 09:08:00,12.3,9.2,30.42,WNW,283,0.0,0.0,87,0.00,CLR,,0.00,WeatherDisplay:10.37,2014-02-11 14:08:00,
2014-02-11 09:13:00,12.5,9.4,30.42,WSW,243,0.0,0.0,87,0.00,CLR,,0.00,WeatherDisplay:10.37,2014-02-11 14:13:00,
2014-02-11 09:18:00,12.7,9.6,30.43,West,266,0.0,0.0,87,0.00,CLR,,0.00,WeatherDisplay:10.37,2014-02-11 14:18:00,
2014-02-11 09:23:00,12.8,9.7,30.43,West,259,0.0,0.0,87,0.00,CLR,,0.00,WeatherDisplay:10.37,2014-02-11 14:23:00,
2014-02-11 09:28:00,12.9,9.8,30.43,West,274,0.0,0.0,87,0.00,CLR,,0.00,WeatherDisplay:10.37,2014-02-11 14:28:00,
2014-02-11 09:33:00,13.0,9.9,30.43,SW,229,0.0,0.0,87,0.00,CLR,,0.00,WeatherDisplay:10.37,2014-02-11 14:33:00,
2014-02-11 09:38:00,13.2,10.1,30.43,WSW,257,0.0,0.0,87,0.00,CLR,,0.00,WeatherDisplay:10.37,2014-02-11 14:38:00,
2014-02-11 09:43:00,13.4,10.3,30.43,WSW,255,0.0,0.0,87,0.00,CLR,,0.00,WeatherDisplay:10.37,2014-02-11 14:43:00,
2014-02-11 09:48:00,13.5,10.1,30.44,West,270,0.0,0.0,86,0.00,CLR,,0.00,WeatherDisplay:10.37,2014-02-11 14:48:00,
2014-02-11 09:53:00,13.5,10.4,30.44,NW,321,0.0,0.0,87,0.00,CLR,,0.00,WeatherDisplay:10.37,2014-02-11 14:53:00,
2014-02-11 09:58:00,13.5,10.1,30.44,WNW,290,0.0,0.0,86,0.00,CLR,,0.00,WeatherDisplay:10.37,2014-02-11 14:58:00,
2014-02-11 10:03:00,13.5,10.4,30.44,West,280,0.0,0.0,87,0.00,CLR,,0.00,WeatherDisplay:10.37,2014-02-11 15:03:00,
2014-02-11 10:08:00,13.7,10.8,30.44,NW,314,0.0,0.0,88,0.00,CLR,,0.00,WeatherDisplay:10.37,2014-02-11 15:08:00,
2014-02-11 10:13:00,14.0,10.8,30.44,WNW,297,0.0,0.0,87,0.00,CLR,,0.00,WeatherDisplay:10.37,2014-02-11 15:13:00,
2014-02-11 10:18:00,14.3,11.4,30.44,West,274,0.0,0.0,88,0.00,CLR,,0.00,WeatherDisplay:10.37,2014-02-11 15:18:00,
2014-02-11 10:23:00,14.6,11.4,30.44,West,273,0.0,0.0,87,0.00,CLR,,0.00,WeatherDisplay:10.37,2014-02-11 15:23:00,
2014-02-11 10:28:00,14.7,11.3,30.44,SW,229,0.0,0.0,86,0.00,CLR,,0.00,WeatherDisplay:10.37,2014-02-11 15:28:00,
2014-02-11 10:33:00,15.1,11.9,30.45,WNW,287,0.0,0.0,87,0.00,CLR,,0.00,WeatherDisplay:10.37,2014-02-11 15:33:00,
2014-02-11 10:38:00,15.6,12.4,30.45,WSW,256,0.0,0.0,87,0.00,CLR,,0.00,WeatherDisplay:10.37,2014-02-11 15:38:00,
2014-02-11 10:43:00,15.9,12.2,30.45,WSW,253,0.0,0.0,85,0.00,CLR,,0.00,WeatherDisplay:10.37,2014-02-11 15:43:00,
2014-02-11 10:48:00,16.4,12.7,30.45,WNW,282,0.0,0.0,85,0.00,CLR,,0.00,WeatherDisplay:10.37,2014-02-11 15:48:00,
2014-02-11 10:53:00,16.4,12.4,30.45,West,262,0.0,0.0,84,0.00,CLR,,0.00,WeatherDisplay:10.37,2014-02-11 15:53:00,
2014-02-11 10:58:00,16.4,12.4,30.45,WSW,241,0.0,0.0,84,0.00,CLR,,0.00,WeatherDisplay:10.37,2014-02-11 15:58:00,
2014-02-11 11:03:00,16.3,12.3,30.45,WSW,255,0.0,0.0,84,0.00,CLR,,0.00,WeatherDisplay:10.37,2014-02-11 16:03:00,
2014-02-11 11:08:00,17.1,13.4,30.45,West,270,0.0,0.0,85,0.00,CLR,,0.00,WeatherDisplay:10.37,2014-02-11 16:08:00,
2014-02-11 11:13:00,17.4,13.1,30.45,West,275,0.0,0.0,83,0.00,CLR,,0.00,WeatherDisplay:10.37,2014-02-11 16:13:00,
2014-02-11 11:18:00,16.9,12.6,30.45,West,278,0.0,0.0,83,0.00,CLR,,0.00,WeatherDisplay:10.37,2014-02-11 16:18:00,
2014-02-11 11:23:00,16.5,12.5,30.45,WNW,292,0.0,0.0,84,0.00,CLR,,0.00,WeatherDisplay:10.37,2014-02-11 16:23:00,
2014-02-11 11:28:00,16.4,12.7,30.45,WSW,255,0.0,0.0,85,0.00,CLR,,0.00,WeatherDisplay:10.37,2014-02-11 16:28:00,
2014-02-11 11:33:00,16.7,13.2,30.45,WSW,255,0.0,0.0,86,0.00,CLR,,0.00,WeatherDisplay:10.37,2014-02-11 16:33:00,
2014-02-11 11:38:00,16.5,12.8,30.45,WNW,287,0.0,0.0,85,0.00,CLR,,0.00,WeatherDisplay:10.37,2014-02-11 16:38:00,
2014-02-11 11:43:00,16.3,12.3,30.45,WSW,249,0.0,0.0,84,0.00,CLR,,0.00,WeatherDisplay:10.37,2014-02-11 16:43:00,
2014-02-11 11:48:00,16.3,12.6,30.46,West,280,0.0,0.0,85,0.00,CLR,,0.00,WeatherDisplay:10.37,2014-02-11 16:48:00,
2014-02-11 11:53:00,16.5,12.8,30.46,WSW,253,0.0,0.0,85,0.00,CLR,,0.00,WeatherDisplay:10.37,2014-02-11 16:53:00,
2014-02-11 11:58:00,16.4,12.7,30.46,WSW,250,0.0,0.0,85,0.00,CLR,,0.00,WeatherDisplay:10.37,2014-02-11 16:58:00,
2014-02-11 12:03:00,16.6,12.9,30.45,WNW,289,0.0,0.0,85,0.00,CLR,,0.00,WeatherDisplay:10.37,2014-02-11 17:03:00,
2014-02-11 12:08:00,16.7,13.0,30.45,West,269,0.0,0.0,85,0.00,CLR,,0.00,WeatherDisplay:10.37,2014-02-11 17:08:00,
2014-02-11 12:13:00,17.1,13.4,30.45,NW,312,0.0,0.0,85,0.00,CLR,,0.00,WeatherDisplay:10.37,2014-02-11 17:13:00,
2014-02-11 12:18:00,17.2,12.9,30.45,West,280,0.0,0.0,83,0.00,CLR,,0.00,WeatherDisplay:10.37,2014-02-11 17:18:00,
2014-02-11 12:23:00,17.4,13.4,30.45,West,278,0.0,0.0,84,0.00,CLR,,0.00,WeatherDisplay:10.37,2014-02-11 17:23:00,
2014-02-11 12:28:00,17.4,13.4,30.46,WSW,238,0.0,0.0,84,0.00,CLR,,0.00,WeatherDisplay:10.37,2014-02-11 17:28:00,
2014-02-11 12:33:00,17.3,13.0,30.45,SW,233,0.0,0.0,83,0.00,CLR,,0.00,WeatherDisplay:10.37,2014-02-11 17:33:00,
2014-02-11 12:38:00,17.5,13.5,30.46,WSW,240,0.0,0.0,84,0.00,CLR,,0.00,WeatherDisplay:10.37,2014-02-11 17:38:00,
2014-02-11 12:43:00,17.1,13.1,30.45,West,281,0.0,0.0,84,0.00,CLR,,0.00,WeatherDisplay:10.37,2014-02-11 17:43:00,
2014-02-11 12:48:00,16.8,13.3,30.45,West,270,0.0,0.0,86,0.00,CLR,,0.00,WeatherDisplay:10.37,2014-02-11 17:48:00,
2014-02-11 12:53:00,16.9,13.7,30.45,WNW,284,0.0,0.0,87,0.00,CLR,,0.00,WeatherDisplay:10.37,2014-02-11 17:53:00,
2014-02-11 12:58:00,16.7,13.5,30.45,West,263,0.0,0.0,87,0.00,CLR,,0.00,WeatherDisplay:10.37,2014-02-11 17:58:00,
2014-02-11 13:03:00,16.9,13.7,30.45,West,262,0.0,0.0,87,0.00,CLR,,0.00,WeatherDisplay:10.37,2014-02-11 18:03:00,
2014-02-11 13:08:00,17.1,13.4,30.45,NW,318,0.0,0.0,85,0.00,CLR,,0.00,WeatherDisplay:10.37,2014-02-11 18:08:00,
2014-02-11 13:13:00,17.1,13.6,30.45,West,267,0.0,0.0,86,0.00,CLR,,0.00,WeatherDisplay:10.37,2014-02-11 18:13:00,
2014-02-11 13:18:00,17.7,14.0,30.45,WNW,283,0.0,0.0,85,0.00,CLR,,0.00,WeatherDisplay:10.37,2014-02-11 18:18:00,
2014-02-11 13:23:00,17.8,13.5,30.45,West,273,0.0,0.0,83,0.00,CLR,,0.00,WeatherDisplay:10.37,2014-02-11 18:23:00,
2014-02-11 13:28:00,17.8,13.2,30.44,WNW,300,0.0,0.0,82,0.00,CLR,,0.00,WeatherDisplay:10.37,2014-02-11 18:28:00,
2014-02-11 13:34:00,17.6,13.0,30.45,NW,314,0.0,0.0,82,0.00,CLR,,0.00,WeatherDisplay:10.37,2014-02-11 18:34:00,
2014-02-11 13:39:00,17.3,11.9,30.44,WSW,257,0.0,0.0,79,0.00,CLR,,0.00,WeatherDisplay:10.37,2014-02-11 18:39:00,
2014-02-11 13:44:00,17.4,11.7,30.44,West,281,0.0,0.0,78,0.00,CLR,,0.00,WeatherDisplay:10.37,2014-02-11 18:44:00,
2014-02-11 13:49:00,17.4,11.7,30.44,WNW,300,0.0,0.0,78,0.00,CLR,,0.00,WeatherDisplay:10.37,2014-02-11 18:49:00,
2014-02-11 13:54:00,17.9,12.8,30.44,NNW,330,0.0,0.0,80,0.00,CLR,,0.00,WeatherDisplay:10.37,2014-02-11 18:54:00,
2014-02-11 13:59:00,18.2,11.9,30.44,West,260,0.0,0.0,76,0.00,CLR,,0.00,WeatherDisplay:10.37,2014-02-11 18:59:00,
2014-02-11 14:04:00,17.9,10.7,30.44,NW,309,0.0,0.0,73,0.00,CLR,,0.00,WeatherDisplay:10.37,2014-02-11 19:04:00,
2014-02-11 14:09:00,17.7,9.9,30.44,NNW,342,0.0,0.0,71,0.00,CLR,,0.00,WeatherDisplay:10.37,2014-02-11 19:09:00,
2014-02-11 14:14:00,17.8,10.3,30.44,WNW,290,0.0,0.0,72,0.00,CLR,,0.00,WeatherDisplay:10.37,2014-02-11 19:14:00,
2014-02-11 14:19:00,18.1,10.6,30.44,NW,325,0.0,0.0,72,0.00,CLR,,0.00,WeatherDisplay:10.37,2014-02-11 19:19:00,
2014-02-11 14:24:00,18.2,10.7,30.44,NW,312,0.0,0.0,72,0.00,CLR,,0.00,WeatherDisplay:10.37,2014-02-11 19:24:00,
2014-02-11 14:29:00,18.2,11.3,30.44,NW,312,0.0,0.0,74,0.00,CLR,,0.00,WeatherDisplay:10.37,2014-02-11 19:29:00,
2014-02-11 14:34:00,18.1,11.5,30.44,WNW,283,0.0,0.0,75,0.00,CLR,,0.00,WeatherDisplay:10.37,2014-02-11 19:34:00,
2014-02-11 14:39:00,17.8,10.9,30.44,NW,324,0.0,0.0,74,0.00,CLR,,0.00,WeatherDisplay:10.37,2014-02-11 19:39:00,
2014-02-11 14:44:00,17.5,10.6,30.44,West,273,0.0,0.0,74,0.00,CLR,,0.00,WeatherDisplay:10.37,2014-02-11 19:44:00,
2014-02-11 14:49:00,17.4,9.6,30.44,WNW,291,0.0,0.0,71,0.00,CLR,,0.00,WeatherDisplay:10.37,2014-02-11 19:49:00,
2014-02-11 14:54:00,17.6,9.5,30.44,NNW,342,0.0,0.0,70,0.00,CLR,,0.00,WeatherDisplay:10.37,2014-02-11 19:54:00,
2014-02-11 14:59:00,17.9,9.4,30.45,NW,305,0.0,0.0,69,0.00,CLR,,0.00,WeatherDisplay:10.37,2014-02-11 19:59:00,
2014-02-11 15:05:00,18.1,9.6,30.45,SSW,210,0.0,0.0,69,0.00,CLR,,0.00,WeatherDisplay:10.37,2014-02-11 20:05:00,
2014-02-11 15:10:00,18.4,9.9,30.45,NNW,335,0.0,0.0,69,0.00,CLR,,0.00,WeatherDisplay:10.37,2014-02-11 20:10:00,
2014-02-11 15:15:00,18.3,9.8,30.45,WNW,287,0.0,0.0,69,0.00,CLR,,0.00,WeatherDisplay:10.37,2014-02-11 20:15:00,
2014-02-11 15:20:00,18.1,8.6,30.45,NNW,332,0.0,0.0,66,0.00,CLR,,0.00,WeatherDisplay:10.37,2014-02-11 20:20:00,
2014-02-11 15:25:00,17.9,8.5,30.45,SW,228,0.0,0.0,66,0.00,CLR,,0.00,WeatherDisplay:10.37,2014-02-11 20:25:00,
2014-02-11 15:30:00,17.6,8.5,30.46,WNW,288,0.0,0.0,67,0.00,CLR,,0.00,WeatherDisplay:10.37,2014-02-11 20:30:00,
2014-02-11 15:35:00,17.4,9.0,30.46,NNW,343,0.0,0.0,69,0.00,CLR,,0.00,WeatherDisplay:10.37,2014-02-11 20:35:00,
2014-02-11 15:40:00,17.0,8.3,30.46,WNW,291,0.0,0.0,68,0.00,CLR,,0.00,WeatherDisplay:10.37,2014-02-11 20:40:00,
2014-02-11 15:45:00,16.9,8.2,30.46,NW,312,0.0,0.0,68,0.00,CLR,,0.00,WeatherDisplay:10.37,2014-02-11 20:45:00,
2014-02-11 15:50:00,16.7,8.3,30.46,West,280,0.0,0.0,69,0.00,CLR,,0.00,WeatherDisplay:10.37,2014-02-11 20:50:00,
2014-02-11 15:55:00,16.6,8.2,30.46,West,265,0.0,0.0,69,0.00,CLR,,0.00,WeatherDisplay:10.37,2014-02-11 20:55:00,
2014-02-11 16:00:00,16.6,8.2,30.47,WNW,287,0.0,0.0,69,0.00,CLR,,0.00,WeatherDisplay:10.37,2014-02-11 21:00:00,
2014-02-11 16:05:00,16.6,7.9,30.47,WNW,293,0.0,0.0,68,0.00,CLR,,0.00,WeatherDisplay:10.37,2014-02-11 21:05:00,
2014-02-11 16:10:00,16.6,7.9,30.47,West,270,0.0,0.0,68,0.00,CLR,,0.00,WeatherDisplay:10.37,2014-02-11 21:10:00,
2014-02-11 16:15:00,16.6,7.9,30.47,WNW,299,0.0,0.0,68,0.00,CLR,,0.00,WeatherDisplay:10.37,2014-02-11 21:15:00,
2014-02-11 16:20:00,16.5,8.1,30.47,WNW,284,0.0,0.0,69,0.00,CLR,,0.00,WeatherDisplay:10.37,2014-02-11 21:20:00,
2014-02-11 16:25:00,16.5,8.7,30.47,NNW,331,0.0,0.0,71,0.00,CLR,,0.00,WeatherDisplay:10.37,2014-02-11 21:25:00,
2014-02-11 16:30:00,16.4,8.6,30.47,WNW,283,0.0,0.0,71,0.00,CLR,,0.00,WeatherDisplay:10.37,2014-02-11 21:30:00,
2014-02-11 16:35:00,16.3,8.2,30.47,West,269,0.0,0.0,70,0.00,CLR,,0.00,WeatherDisplay:10.37,2014-02-11 21:35:00,
2014-02-11 16:40:00,16.2,7.8,30.48,WNW,284,0.0,0.0,69,0.00,CLR,,0.00,WeatherDisplay:10.37,2014-02-11 21:40:00,
2014-02-11 16:45:00,16.2,8.1,30.48,West,271,0.0,0.0,70,0.00,CLR,,0.00,WeatherDisplay:10.37,2014-02-11 21:45:00,
2014-02-11 16:50:00,16.3,7.9,30.48,West,269,0.0,0.0,69,0.00,CLR,,0.00,WeatherDisplay:10.37,2014-02-11 21:50:00,
2014-02-11 16:55:00,16.3,7.6,30.48,WSW,258,0.0,0.0,68,0.00,CLR,,0.00,WeatherDisplay:10.37,2014-02-11 21:55:00,
2014-02-11 17:00:00,16.3,8.2,30.48,North,353,0.0,0.0,70,0.00,CLR,,0.00,WeatherDisplay:10.37,2014-02-11 22:00:00,
2014-02-11 17:05:00,15.9,7.8,30.48,WNW,300,0.0,0.0,70,0.00,CLR,,0.00,WeatherDisplay:10.37,2014-02-11 22:05:00,
2014-02-11 17:10:00,15.5,8.1,30.48,West,260,0.0,0.0,72,0.00,CLR,,0.00,WeatherDisplay:10.37,2014-02-11 22:10:00,
2014-02-11 17:15:00,15.2,7.8,30.49,West,263,0.0,0.0,72,0.00,CLR,,0.00,WeatherDisplay:10.37,2014-02-11 22:15:00,
2014-02-11 17:20:00,15.0,7.6,30.49,West,263,0.0,0.0,72,0.00,CLR,,0.00,WeatherDisplay:10.37,2014-02-11 22:20:00,
2014-02-11 17:25:00,14.8,7.4,30.49,WNW,288,0.0,0.0,72,0.00,CLR,,0.00,WeatherDisplay:10.37,2014-02-11 22:25:00,
2014-02-11 17:30:00,14.6,7.5,30.49,West,273,0.0,0.0,73,0.00,CLR,,0.00,WeatherDisplay:10.37,2014-02-11 22:30:00,
2014-02-11 17:35:00,14.6,7.8,30.49,West,261,0.0,0.0,74,0.00,CLR,,0.00,WeatherDisplay:10.37,2014-02-11 22:35:00,
2014-02-11 17:40:00,14.5,8.0,30.49,SW,228,0.0,0.0,75,0.00,CLR,,0.00,WeatherDisplay:10.37,2014-02-11 22:40:00,
2014-02-11 17:45:00,14.4,8.2,30.50,NW,312,0.0,0.0,76,0.00,CLR,,0.00,WeatherDisplay:10.37,2014-02-11 22:45:00,
2014-02-11 17:50:00,14.3,8.1,30.50,WNW,285,0.0,0.0,76,0.00,CLR,,0.00,WeatherDisplay:10.37,2014-02-11 22:50:00,
2014-02-11 17:55:00,14.3,8.1,30.50,SW,221,0.0,0.0,76,0.00,CLR,,0.00,WeatherDisplay:10.37,2014-02-11 22:55:00,
2014-02-11 18:00:00,14.2,8.3,30.50,NNW,348,0.0,0.0,77,0.00,CLR,,0.00,WeatherDisplay:10.37,2014-02-11 23:00:00,
2014-02-11 18:05:00,14.2,8.0,30.50,NNW,340,0.0,0.0,76,0.00,CLR,,0.00,WeatherDisplay:10.37,2014-02-11 23:05:00,
2014-02-11 18:10:00,14.2,8.0,30.51,WSW,258,0.0,0.0,76,0.00,CLR,,0.00,WeatherDisplay:10.37,2014-02-11 23:10:00,
2014-02-11 18:15:00,14.2,8.0,30.51,West,266,0.0,0.0,76,0.00,CLR,,0.00,WeatherDisplay:10.37,2014-02-11 23:15:00,
2014-02-11 18:20:00,14.3,7.5,30.51,WNW,302,0.0,0.0,74,0.00,CLR,,0.00,WeatherDisplay:10.37,2014-02-11 23:20:00,
2014-02-11 18:25:00,14.3,8.1,30.51,WNW,283,0.0,0.0,76,0.00,CLR,,0.00,WeatherDisplay:10.37,2014-02-11 23:25:00,
2014-02-11 18:30:00,14.2,7.7,30.51,NW,309,0.0,0.0,75,0.00,CLR,,0.00,WeatherDisplay:10.37,2014-02-11 23:30:00,
2014-02-11 18:35:00,14.3,7.2,30.51,West,262,0.0,0.0,73,0.00,CLR,,0.00,WeatherDisplay:10.37,2014-02-11 23:35:00,
2014-02-11 18:40:00,14.3,7.5,30.51,NW,309,0.0,0.0,74,0.00,CLR,,0.00,WeatherDisplay:10.37,2014-02-11 23:40:00,
2014-02-11 18:45:00,14.3,7.8,30.51,NE,56,0.0,0.0,75,0.00,CLR,,0.00,WeatherDisplay:10.37,2014-02-11 23:45:00,
2014-02-11 18:50:00,14.2,7.4,30.52,West,275,0.0,0.0,74,0.00,CLR,,0.00,WeatherDisplay:10.37,2014-02-11 23:50:00,
2014-02-11 18:55:00,14.2,7.4,30.52,West,278,0.0,0.0,74,0.00,CLR,,0.00,WeatherDisplay:10.37,2014-02-11 23:55:00,
2014-02-11 19:00:00,14.2,7.7,30.52,West,266,0.0,0.0,75,0.00,CLR,,0.00,WeatherDisplay:10.37,2014-02-12 00:00:00,
2014-02-11 19:05:00,14.2,7.7,30.52,West,278,0.0,0.0,75,0.00,CLR,,0.00,WeatherDisplay:10.37,2014-02-12 00:05:00,
2014-02-11 19:10:00,14.1,7.9,30.52,West,265,0.0,0.0,76,0.00,CLR,,0.00,WeatherDisplay:10.37,2014-02-12 00:10:00,
2014-02-11 19:15:00,14.1,7.9,30.52,West,267,0.0,0.0,76,0.00,CLR,,0.00,WeatherDisplay:10.37,2014-02-12 00:15:00,
2014-02-11 19:20:00,14.1,7.9,30.52,WSW,252,0.0,0.0,76,0.00,CLR,,0.00,WeatherDisplay:10.37,2014-02-12 00:20:00,
2014-02-11 19:25:00,14.1,8.2,30.52,South,177,0.0,0.0,77,0.00,CLR,,0.00,WeatherDisplay:10.37,2014-02-12 00:25:00,
2014-02-11 19:30:00,14.0,8.1,30.52,SW,225,0.0,0.0,77,0.00,CLR,,0.00,WeatherDisplay:10.37,2014-02-12 00:30:00,
2014-02-11 19:35:00,14.0,8.1,30.52,WNW,290,0.0,0.0,77,0.00,CLR,,0.00,WeatherDisplay:10.37,2014-02-12 00:35:00,
2014-02-11 19:40:00,13.9,7.7,30.52,WNW,283,0.0,0.0,76,0.00,CLR,,0.00,WeatherDisplay:10.37,2014-02-12 00:40:00,
2014-02-11 19:45:00,13.9,8.0,30.52,NNW,343,0.0,0.0,77,0.00,CLR,,0.00,WeatherDisplay:10.37,2014-02-12 00:45:00,
2014-02-11 19:50:00,13.9,7.7,30.52,NW,304,0.0,0.0,76,0.00,CLR,,0.00,WeatherDisplay:10.37,2014-02-12 00:50:00,
2014-02-11 19:55:00,13.8,7.3,30.52,WNW,284,0.0,0.0,75,0.00,CLR,,0.00,WeatherDisplay:10.37,2014-02-12 00:55:00,
2014-02-11 20:00:00,13.8,7.3,30.52,West,280,0.0,0.0,75,0.00,CLR,,0.00,WeatherDisplay:10.37,2014-02-12 01:00:00,
2014-02-11 20:05:00,13.8,7.3,30.52,West,277,0.0,0.0,75,0.00,,,0.00,WeatherDisplay:10.37,2014-02-12 01:05:00,
2014-02-11 20:10:00,13.8,7.3,30.52,NW,309,0.0,0.0,75,0.00,,,0.00,WeatherDisplay:10.37,2014-02-12 01:10:00,
2014-02-11 20:15:00,13.7,7.2,30.52,SE,145,0.0,0.0,75,0.00,,,0.00,WeatherDisplay:10.37,2014-02-12 01:15:00,
2014-02-11 20:20:00,13.7,6.9,30.52,SW,231,0.0,0.0,74,0.00,,,0.00,WeatherDisplay:10.37,2014-02-12 01:20:00,
2014-02-11 20:26:00,13.6,6.8,30.52,West,265,0.0,0.0,74,0.00,,,0.00,WeatherDisplay:10.37,2014-02-12 01:26:00,
2014-02-11 20:31:00,13.6,6.8,30.52,NW,321,0.0,0.0,74,0.00,,,0.00,WeatherDisplay:10.37,2014-02-12 01:31:00,
2014-02-11 20:36:00,13.6,6.5,30.52,SW,222,0.0,0.0,73,0.00,,,0.00,WeatherDisplay:10.37,2014-02-12 01:36:00,
2014-02-11 20:41:00,13.5,6.5,30.53,NNW,338,0.0,0.0,73,0.00,,,0.00,WeatherDisplay:10.37,2014-02-12 01:41:00,
2014-02-11 20:46:00,13.5,6.8,30.53,West,269,0.0,0.0,74,0.00,,,0.00,WeatherDisplay:10.37,2014-02-12 01:46:00,
2014-02-11 20:51:00,13.5,6.8,30.53,WSW,246,0.0,0.0,74,0.00,,,0.00,WeatherDisplay:10.37,2014-02-12 01:51:00,
2014-02-11 20:56:00,13.5,6.5,30.53,WSW,255,0.0,0.0,73,0.00,,,0.00,WeatherDisplay:10.37,2014-02-12 01:56:00,
2014-02-11 21:01:00,13.4,6.4,30.53,West,276,0.0,0.0,73,0.00,,,0.00,WeatherDisplay:10.37,2014-02-12 02:01:00,
2014-02-11 21:06:00,13.4,6.4,30.53,WSW,246,0.0,0.0,73,0.00,,,0.00,WeatherDisplay:10.37,2014-02-12 02:06:00,
2014-02-11 21:11:00,13.4,6.4,30.53,NW,304,0.0,0.0,73,0.00,,,0.00,WeatherDisplay:10.37,2014-02-12 02:11:00,
2014-02-11 21:16:00,13.3,6.3,30.53,SW,226,0.0,0.0,73,0.00,,,0.00,WeatherDisplay:10.37,2014-02-12 02:16:00,
2014-02-11 21:21:00,13.3,6.3,30.53,WSW,257,0.0,0.0,73,0.00,,,0.00,WeatherDisplay:10.37,2014-02-12 02:21:00,
2014-02-11 21:26:00,13.3,6.3,30.53,West,260,0.0,0.0,73,0.00,,,0.00,WeatherDisplay:10.37,2014-02-12 02:26:00,
2014-02-11 21:31:00,13.3,6.3,30.53,West,270,0.0,0.0,73,0.00,,,0.00,WeatherDisplay:10.37,2014-02-12 02:31:00,
2014-02-11 21:36:00,13.3,6.3,30.53,West,266,0.0,0.0,73,0.00,,,0.00,WeatherDisplay:10.37,2014-02-12 02:36:00,
2014-02-11 21:41:00,13.3,6.3,30.54,West,269,0.0,0.0,73,0.00,,,0.00,WeatherDisplay:10.37,2014-02-12 02:41:00,
2014-02-11 21:46:00,13.3,6.0,30.54,West,274,0.0,0.0,72,0.00,,,0.00,WeatherDisplay:10.37,2014-02-12 02:46:00,
2014-02-11 21:51:00,13.3,6.0,30.54,NNW,339,0.0,0.0,72,0.00,,,0.00,WeatherDisplay:10.37,2014-02-12 02:51:00,
2014-02-11 21:56:00,13.3,6.3,30.54,West,280,0.0,0.0,73,0.00,,,0.00,WeatherDisplay:10.37,2014-02-12 02:56:00,
2014-02-11 22:01:00,13.2,6.2,30.54,NW,323,0.0,0.0,73,0.00,,,0.00,WeatherDisplay:10.37,2014-02-12 03:01:00,
2014-02-11 22:06:00,13.2,6.2,30.54,West,261,0.0,0.0,73,0.00,,,0.00,WeatherDisplay:10.37,2014-02-12 03:06:00,
2014-02-11 22:11:00,13.2,5.9,30.54,WSW,250,0.0,0.0,72,0.00,,,0.00,WeatherDisplay:10.37,2014-02-12 03:11:00,
2014-02-11 22:16:00,13.1,5.8,30.54,SW,231,0.0,0.0,72,0.00,,,0.00,WeatherDisplay:10.37,2014-02-12 03:16:00,
2014-02-11 22:21:00,13.0,6.0,30.55,WSW,250,0.0,0.0,73,0.00,,,0.00,WeatherDisplay:10.37,2014-02-12 03:21:00,
2014-02-11 22:26:00,13.0,6.0,30.54,SW,229,0.0,0.0,73,0.00,,,0.00,WeatherDisplay:10.37,2014-02-12 03:26:00,
2014-02-11 22:31:00,12.9,5.9,30.55,WSW,255,0.0,0.0,73,0.00,,,0.00,WeatherDisplay:10.37,2014-02-12 03:31:00,
2014-02-11 22:36:00,12.9,6.2,30.54,NNW,341,0.0,0.0,74,0.00,,,0.00,WeatherDisplay:10.37,2014-02-12 03:36:00,
2014-02-11 22:41:00,12.8,6.1,30.54,SSE,166,0.0,0.0,74,0.00,,,0.00,WeatherDisplay:10.37,2014-02-12 03:41:00,
2014-02-11 22:46:00,12.7,6.3,30.54,SW,233,0.0,0.0,75,0.00,,,0.00,WeatherDisplay:10.37,2014-02-12 03:46:00,
2014-02-11 22:51:00,12.6,6.2,30.54,WSW,238,0.0,0.0,75,0.00,,,0.00,WeatherDisplay:10.37,2014-02-12 03:51:00,
2014-02-11 22:56:00,12.6,6.2,30.54,WSW,248,0.0,0.0,75,0.00,,,0.00,WeatherDisplay:10.37,2014-02-12 03:56:00,
2014-02-11 23:01:00,12.5,6.4,30.54,ENE,73,0.0,0.0,76,0.00,,,0.00,WeatherDisplay:10.37,2014-02-12 04:01:00,
2014-02-11 23:06:00,12.5,6.1,30.54,SW,226,0.0,0.0,75,0.00,,,0.00,WeatherDisplay:10.37,2014-02-12 04:06:00,
2014-02-11 23:11:00,12.4,6.0,30.54,WSW,239,0.0,0.0,75,0.00,,,0.00,WeatherDisplay:10.37,2014-02-12 04:11:00,
2014-02-11 23:16:00,12.4,6.0,30.54,WSW,255,0.0,0.0,75,0.00,,,0.00,WeatherDisplay:10.37,2014-02-12 04:16:00,
2014-02-11 23:21:00,12.3,5.9,30.55,WSW,248,0.0,0.0,75,0.00,,,0.00,WeatherDisplay:10.37,2014-02-12 04:21:00,
2014-02-11 23:26:00,12.2,5.8,30.55,SSW,211,0.0,0.0,75,0.00,,,0.00,WeatherDisplay:10.37,2014-02-12 04:26:00,
2014-02-11 23:32:00,12.2,5.8,30.55,West,264,0.0,0.0,75,0.00,,,0.00,WeatherDisplay:10.37,2014-02-12 04:32:00,
2014-02-11 23:37:00,12.1,5.7,30.55,WSW,255,0.0,0.0,75,0.00,,,0.00,WeatherDisplay:10.37,2014-02-12 04:37:00,
2014-02-11 23:42:00,12.1,5.7,30.55,SW,233,0.0,0.0,75,0.00,,,0.00,WeatherDisplay:10.37,2014-02-12 04:42:00,
2014-02-11 23:47:00,12.0,5.6,30.55,SW,229,0.0,0.0,75,0.00,,,0.00,WeatherDisplay:10.37,2014-02-12 04:47:00,
2014-02-11 23:52:00,11.9,5.5,30.55,WSW,244,0.0,0.0,75,0.00,,,0.00,WeatherDisplay:10.37,2014-02-12 04:52:00,
2014-02-11 23:57:00,11.9,5.8,30.55,WSW,244,0.0,0.0,76,0.00,,,0.00,WeatherDisplay:10.37,2014-02-12 04:57:00,